Regional Weather Roundup
Issued by NWS Midland/Odessa, TX

Skip options and go directly to product.
Home | Oldest Version | Previous Version | Current Version | All | Graphics & Text | Save Text | Print | Product List | Glossary On

Skip product version selection by date and time.   
793
ASUS44 KMAF 271510
RWRMAF
MIDLAND AREA WEATHER ROUNDUP
NATIONAL WEATHER SERVICE MIDLAND TX
1000 AM CDT MON APR 27 2015

...IN SOUTHWEST TEXAS AND SOUTHEAST NEW MEXICO...

CITY           SKY/WX    TMP DP  RH WIND       PRES   REMARKS
ALPINE         SUNNY     59  33  38 W17       29.95R
ANDREWS        PTSUNNY   57  48  72 N8        29.84R
ARTESIA        CLOUDY    55  45  67 N21G29    29.92R
BIG SPRING     MOSUNNY   61  52  71 N3        29.83F
CARLSBAD       MOSUNNY   57  42  57 N18       29.88R
DRYDEN           N/A     71  34  25 W16       29.80S
FORT STOCKTON  SUNNY     63  36  36 W12       29.86R
GUAD PASS      SUNNY     48  36  63 SW9       29.93R
HOBBS          PTSUNNY   54  48  82 N8        29.87R
MARFA          SUNNY     55  34  44 W14G20    29.93S
MIDLAND AIRPK  SUNNY     60  48  63 N7        29.83S
MIDLAND INTL   MOSUNNY   59  48  67 NE7       29.83R
ODESSA         MOSUNNY   59  46  62 NE9       29.84S
PECOS          SUNNY     61  38  42 NW6       29.86R
PRESIDIO       FAIR      65  33  30 W6        29.90S
SEMINOLE       PTSUNNY   57  47  69 NE8       29.85S
SNYDER         CLOUDY    55  52  88 N7        29.81S
WINK           SUNNY     60  40  47 N15       29.85R
$$
...OTHER STATIONS IN TEXAS...

CITY           SKY/WX    TMP DP  RH WIND       PRES   REMARKS
ABILENE        CLOUDY    59  54  83 NW10      29.79R
AMARILLO       RAIN      44  43  96 N21G29    29.90R FOG     WCI  36
AUSTIN         PTSUNNY   69  63  81 NW7       29.70S
BROWNSVILLE    CLOUDY    84  79  85 NW6       29.60R HAZE
CORPUS CHRISTI CLOUDY    76  66  71 N15       29.64S
DALLAS FTW     PTSUNNY   64  58  80 E13G21    29.73R
DEL RIO        SUNNY     71  46  40 CALM      29.75S
EL PASO        MOSUNNY   56  39  53 N13       29.92R
HOUSTON INT    PTSUNNY   71  64  78 E9        29.67S
LUBBOCK        CLOUDY    52  47  83 N18       29.83R
SAN ANGELO     SUNNY     66  53  63 W3        29.77S
SAN ANTONIO    MOSUNNY   72  62  71 N10       29.71S
WACO           SUNNY     69  61  75 E10G17    29.71R
WICHITA FALLS  NOT AVBL
$$
...OTHER LOCATIONS IN NEW MEXICO...

CITY           SKY/WX    TMP DP  RH WIND       PRES   REMARKS
ALAMAGORDO     MOSUNNY   54  41  62 N14       29.93R
ALBUQUERQUE    CLOUDY    48  40  73 W6        30.03R
CANNON AFB     NOT AVBL
CLOVIS         PTSUNNY   46  41  81 N25G31    29.92R WCI  38
HOLLOMAN AFB   NOT AVBL
ROSWELL        CLOUDY    53  42  66 N24G32    29.92R
RUIDOSO        CLOUDY    39  37  93 N10G20    30.01R WCI  32
SANTA FE       PTSUNNY   43  36  76 N12       30.03R WCI  37
TRUTH OR CONSE CLOUDY    50  41  71 NE12      29.99R
TUCUMCARI      RAIN      43  40  89 N17       29.99R WCI  35
$$

USA.gov is the U.S. government's official web portal to all federal, state and local government web resources and services.